Weather in Novoe Atlashevo

Russia / Chuvash Republic     56°00′51″N   47°33′12″E
temp.,
°C
wind,
m/s
gust,
m/s
humid.,
%
clouds,
%
prec.,
mm/h
press.,
hPa
HPBL,
m
15 april, thu
thu1500:00+10s36873 0.0 102292
03:00+9s33870 0.0 102125
06:00+9s23870 0.0 102050
09:00+14s35715 0.0 1020371
12:00+18ssw335766 0.1 10191198
15:00+19ssw224687 0.3 10181676
18:00+16nw115836 0.0 101811
21:00+13n367787 0.1 1019121
16 april, fri
fri1600:00+9nne599187 0.0 1020329
03:00+8ne51090100 0.0 1021440
06:00+7ne51090100 0.0 1022485
09:00+8ne6986100 0.0 1024533
12:00+10ene6774100 0.0 1024806
15:00+11ene676899 0.0 1024953
18:00+9ene5106937 0.0 1025486
21:00+6ne410785 0.0 1025226
17 april, sat
sat1700:00+5ne411715 0.0 1026265
03:00+3ne4117419 0.0 1026255
06:00+3ne411725 0.0 1027294
09:00+8ene68480 0.0 1027639
12:00+11ene67350 0.0 10271200
15:00+12ne56350 0.0 10261487
18:00+10ne48490 0.0 1026231
21:00+5ne37640 0.0 1026119
18 april, sun
sun1800:00+4nne36740 0.0 102697
03:00+2nne36790 0.0 102799
06:00+3n37790 0.0 1027181
09:00+8nne56550 0.0 1027756
12:00+11nne684523 0.0 10261750
15:00+10nne885499 0.0 10271441
18:00+7ne59595 0.0 10301416
21:00+3ne511525 0.0 1032409
19 april, mon
mon1900:00+1ne410595 0.0 1033278
03:00−1ene39662 0.0 1035218
06:000ene47584 0.0 1038297
09:00+4ene56360 0.0 10381362
12:00+6e45321 0.0 10381643
15:00+7e34334 0.0 10371716
18:00+5ese24460 0.0 1037100
21:00+2ese33530 0.0 103837